Flag for U.S.A. Weather past 2 weeks in Denver, Colorado, U.S.A.

Now
21 °F

Light snow. Ice fog.


Feels Like: 11 °F
Forecast: 19 / 31 °F
Wind: 8 mph from Northeast

Location: Buckley Air Force Base

Current Time: Feb 1, 2015 at 4:13:49 AM

Latest Report: Feb 1, 2015 at 3:58 AM


Visibility: 2 mi

Pressure: 30.14 "Hg

Humidity: 98%

Dew point: 20 °F

Location of DenverLocation

Historic Weather in Denver — Graph

°F

Denver temperature yesterday

Maximum temperature yesterday: 35 °F (at 12:58 PM)
Minimum temperature yesterday: 28 °F (at 11:58 PM)
Average temperature yesterday: 32 °F

Past Weeks' High & Low Weather Summary

 TemperatureHumidityPressure
High73 °F (Jan 27, 2:58 PM)100% (Jan 20, 3:03 AM)30.54 "Hg (Jan 20, 3:03 AM)
Low11 °F (Jan 22, 3:58 AM)10% (Jan 27, 1:58 PM)29.82 "Hg (Jan 31, 2:58 PM)
Average39 °F54%30.13 "Hg
* Reported Jan 17 2:58 AM — Feb 1 2:58 AM, Denver, Weather by CustomWeather, © 2014

Note: Actual official high and low records may vary slightly from our data, if they occured in-between our weather recording intervals... More about our weather records

Advertising

Denver weather history for previous 24 hours

 ConditionsComfort  
Time TempWeatherWind HumidityBarometerVisibility
2:58 AM
Feb 1
22 °FLight snow. Ice fog.16 mph92%30.10 "Hg2 mi
1:58 AM25 °FLight snow. Ice fog.17 mph100%30.09 "Hg1 mi
12:58 AM27 °FLight snow. Ice fog.13 mph100%30.03 "Hg1 mi
11:58 PM
Jan 31
28 °FLight snow. Ice fog.12 mph100%30.01 "Hg1 mi
10:58 PM30 °FLight snow. Ice fog.18 mph100%29.96 "Hg1 mi
9:58 PM31 °FLight snow. Ice fog.7 mph100%29.91 "Hg5 mi
8:58 PM31 °FLight snow. Mostly cloudy.3 mph99%29.90 "Hg10 mi
7:58 PM31 °FPassing clouds.No wind99%29.90 "Hg10 mi
6:58 PM31 °FPassing clouds.5 mph100%29.86 "Hg10 mi
5:58 PM33 °FPassing clouds.No wind100%29.84 "Hg10 mi
4:58 PM33 °FPartly sunny.No windN/A29.83 "Hg10 mi
3:58 PM33 °FCloudy.No wind100%29.82 "Hg10 mi
2:58 PM33 °FLight snow. More clouds than sun.1 mph92%29.82 "Hg4 mi
1:58 PM33 °FLight snow. Fog.3 mph95%29.83 "Hg2 mi
12:58 PM35 °FLight snow. More clouds than sun.3 mph76%29.84 "Hg4 mi
11:58 AM35 °FLight snow. Mostly cloudy.2 mph70%29.86 "Hg7 mi
10:58 AM34 °FMore clouds than sun.3 mph71%29.89 "Hg10 mi
9:58 AM33 °FCloudy.3 mph76%29.91 "Hg10 mi
8:58 AM32 °FPartly sunny.5 mph82%29.89 "Hg10 mi
7:58 AM28 °FBroken clouds.3 mph90%29.93 "Hg10 mi
6:58 AM29 °FPartly cloudy.2 mph80%29.91 "Hg10 mi
5:58 AM31 °FPartly cloudy.5 mph74%29.90 "Hg10 mi
4:58 AM31 °FOvercast.2 mph80%29.91 "Hg10 mi
Weather by CustomWeather, © 2014

See weather overviewHow to use our weather pages